Simultaneous Nadir Overpasses (SNOs) Predictions

Prediction of SNOs between NOAA-19 and TERRA Satellite Orbit:

Table of predicted SNOs for the next 14.0 days since TLE Epoch: 3/8/2012
Index Date (NOAA-19) Time (NOAA-19) NOAA-19 Lat,Lon Date (TERRA) Time (TERRA) TERRA Lat,Lon Distance(km) Time Diff (sec)
1 03/10/2012 22:24:33 -68.93, 23.13 03/10/2012 22:24:40 -68.95, 23.16 2.77 7
2 03/10/2012 23:15:24 68.46,-168.98 03/10/2012 23:14:12 68.57,-169.67 30.86 72
3 03/13/2012 02:18:17 69.02, 144.58 03/13/2012 02:19:28 69.01, 144.54 2.08 71
4 03/13/2012 03:09:20 -68.91, -48.03 03/13/2012 03:08:58 -68.90, -47.98 2.49 22
5 03/15/2012 07:03:04 68.98, 73.44 03/15/2012 07:03:45 69.00, 73.45 1.87 41
6 03/15/2012 07:54:06 -68.84,-119.13 03/15/2012 07:53:16 -68.83,-119.13 0.74 50
7 03/17/2012 11:47:51
